SCP
0 0 0 0 0 0 0 0 0 0 0 0 0 0 0 0 0 0 0 0 0 0 0 0 0 0 0 0 0 0 0 0 0 0 0 0 1 1
0 0 0 0 0 0 0 0 0 0 0 0 0 0 0 0 0 0 0 0 0 0 0 0 0 0 0 0 0 0 0 0 0 0 0 0 1 1
0 0 0 0 0 0 0 0 0 0 0 0 0 0 0 0 0 0 0 0 0 0 0 0 0 0 0 0 0 0 0 0 0 0 0 0 0 1
0 0 0 0 0 0 0 0 0 0 0 0 0 0 0 0 0 0 0 0 0 0 0 0 0 0 0 0 0 0 0 0 0 0 0 0 0 0
0 0 0 0 0 0 0 0 0 0 0 0 0 0 0 0 0 0 0 0 0 0 0 0 0 0 0 0 0 0 0 0 0 0 0 0 0 0
0 0 0 0 0 0 0 0 0 0 0 0 0 0 0 0 0 0 0 0 0 0 0 0 0 0 0 0 0 0 0 0 0 0 0 0 0 0
0 0 0 0 0 0 0 0 0 0 0 0 0 0 0 0 0 0 0 0 0 0 0 0 0 0 0 0 0 0 0 0 0 0 0 0 0 0
0 0 0 0 0 0 0 0 0 0 0 0 0 0 0 0 0 0 0 0 0 0 0 0 0 0 0 0 0 0 0 0 0 0 0 0 0 0
0 0 0 0 0 0 0 0 0 0 0 0 0 0 0 0 0 0 0 0 0 0 0 0 0 0 0 0 0 0 0 0 0 0 0 0 0 0
0 0 0 0 0 0 0 0 0 0 0 0 0 0 0 0 0 0 0 0 0 0 0 0 0 0 0 0 0 0 0 0 0 0 0 0 0 0
0 0 0 0 0 0 0 0 0 0 0 0 0 0 0 0 0 0 0 0 0 0 0 0 0 0 0 0 0 0 0 0 0 0 0 0 0 0
0 0 0 0 0 0 0 0 0 0 0 0 0 0 0 0 0 0 0 0 0 0 0 0 0 0 0 0 0 0 0 0 0 0 0 0 0 0
0 0 0 0 0 0 0 0 0 0 0 0 0 0 0 0 0 0 0 0 0 0 0 0 0 0 0 0 0 0 0 0 0 0 0 0 0 0
0 0 0 0 0 0 0 0 0 0 0 0 0 0 0 0 0 0 0 0 0 0 0 0 0 0 0 0 0 0 0 0 0 0 0 0 0 0
0 0 0 0 0 0 0 0 0 0 0 0 0 0 0 0 0 0 0 0 0 0 0 0 0 0 0 0 0 0 0 0 0 0 0 0 0 0
0 0 0 0 0 0 0 0 0 0 0 0 0 0 0 0 0 0 0 0 0 0 0 0 0 0 0 0 0 0 0 0 0 0 0 0 0 0
0 0 0 0 0 0 0 0 0 0 0 0 0 0 0 0 0 0 0 0 0 0 0 0 0 0 0 0 0 0 0 0 0 0 0 0 0 0
0 0 0 0 0 0 0 0 0 0 0 0 0 0 0 0 0 0 0 0 0 0 0 0 0 0 0 0 0 0 0 0 0 0 0 0 0 0
0 0 0 0 0 0 0 0 0 0 0 0 0 0 0 0 0 0 0 0 0 0 0 0 0 0 0 0 0 0 0 0 0 0 0 0 0 0
0 0 0 0 0 0 0 0 0 0 0 0 0 0 0 0 0 0 0 0 0 0 0 0 0 0 0 0 0 0 0 0 0 0 0 0 0 0
0 0 0 0 0 0 0 0 0 0 0 0 0 0 0 0 0 0 0 0 0 0 0 0 0 0 0 0 0 0 0 0 0 0 0 0 0 0
0 0 0 0 0 0 0 0 0 0 0 0 0 0 0 0 0 0 0 0 0 0 0 0 0 0 0 0 0 0 0 0 0 0 0 0 0 0
0 0 0 0 0 0 0 0 0 0 0 0 0 0 0 0 0 0 0 0 0 0 0 0 0 0 0 0 0 0 0 0 0 0 0 0 0 0
Wind_Speed
4 5 5 4 4 5 5 6 9 16 16 6 3 4 4 5 9 8 8 13 18 21 23 24 25 26 27 28 29 29 30 30 30 29 29 29 28 29
3 5 5 4 4 4 5 5 6 11 17 10 5 4 4 5 8 9 9 14 17 19 21 23 24 26 27 27 28 28 29 30 30 29 28 28 28 28
5 5 6 6 5 5 5 5 6 7 15 16 7 5 6 7 7 7 8 9 10 16 20 22 24 24 25 26 26 27 27 28 28 28 27 27 27 27
7 7 8 6 7 6 6 7 7 7 11 18 13 8 8 8 8 9 8 8 8 14 19 21 22 23 23 24 24 25 25 25 25 25 25 25 25 25
7 7 8 8 8 7 8 8 8 8 8 12 16 11 8 6 8 8 8 8 8 11 16 19 20 21 22 23 23 22 21 22 23 22 22 23 23 22
7 7 8 8 8 8 8 8 8 9 9 11 13 12 10 8 6 8 10 7 8 8 12 13 16 18 20 21 20 19 20 21 20 20 19 19 19 19
8 7 8 9 11 10 9 9 9 9 9 10 11 12 11 9 8 7 11 11 9 5 7 7 8 8 9 13 15 17 19 19 18 17 15 14 13 12
8 8 8 8 10 14 15 15 14 12 11 11 11 12 13 11 10 9 11 11 11 4 6 8 5 7 6 6 13 17 17 16 15 13 12 11 9 8
8 8 7 7 8 8 12 15 13 15 16 13 14 14 14 12 12 13 11 12 12 8 7 9 5 7 5 7 14 14 13 12 11 11 10 8 7 7
7 8 9 9 8 11 10 10 9 9 12 9 10 12 12 11 10 11 12 11 9 6 4 8 6 6 5 5 10 11 11 10 8 8 7 6 5 6
7 7 8 9 13 16 12 11 12 9 11 14 15 15 17 17 14 9 9 9 9 6 2 4 5 6 4 3 5 10 10 9 8 8 6 4 3 7
7 7 8 12 15 16 10 10 12 11 9 9 10 11 10 10 12 8 7 8 7 6 3 4 4 4 4 3 4 5 6 7 8 5 1 4 7 6
8 7 7 14 16 17 14 9 13 13 9 9 8 7 6 5 5 5 4 5 6 5 4 4 3 3 2 3 4 5 5 5 4 5 7 10 10 9
8 7 8 16 17 17 12 13 16 12 6 6 6 5 5 5 5 5 4 3 3 3 5 5 3 3 2 2 3 4 5 5 5 5 6 9 10 11
8 13 16 17 15 10 11 13 9 5 5 5 5 5 5 5 5 4 4 3 2 3 5 5 4 3 2 2 2 3 3 5 6 5 5 5 5 4
8 9 14 14 10 8 6 6 4 4 4 4 5 5 5 4 4 4 4 4 3 3 5 7 6 5 3 3 2 2 3 3 4 5 5 5 4 4
9 6 4 4 4 4 3 3 3 4 4 4 4 5 5 5 4 4 3 4 3 3 4 5 5 4 5 4 3 3 3 3 3 4 4 4 4 3
9 5 4 4 4 4 4 4 3 4 4 4 4 4 4 5 5 4 4 3 3 3 4 4 4 3 2 5 8 3 3 3 3 4 3 2 2 2
5 4 3 3 3 3 3 3 4 4 4 4 4 4 4 4 4 4 4 3 3 3 3 4 4 4 3 3 5 8 4 3 2 3 3 2 1 2
3 3 3 3 3 3 3 3 3 3 4 4 4 4 4 4 4 4 4 3 3 3 3 3 4 4 2 1 2 4 7 4 2 2 2 2 2 3
3 3 3 2 2 3 3 3 3 3 3 3 3 4 4 3 3 3 3 4 3 2 3 3 4 5 2 1 1 2 3 7 5 2 2 2 2 2
3 3 3 2 2 2 3 3 3 2 3 3 3 3 3 3 3 3 3 3 3 2 3 3 4 4 3 2 1 2 3 4 6 7 6 3 1 1
3 3 2 2 2 2 2 3 3 2 2 2 2 3 3 3 3 3 3 2 2 2 3 3 3 3 3 2 1 2 3 4 3 4 4 7 7 8
Wind_Direction
287 282 275 272 264 259 256 258 280 295 294 276 265 251 253 256 260 262 260 260 261 265 267 268 269 270 271 271 271 271 270 269 268 265 262 259 255 246
311 304 295 293 288 278 271 266 262 278 288 291 280 276 275 270 269 267 265 268 265 267 269 270 271 272 273 273 273 272 272 271 270 267 264 261 257 251
325 317 308 306 301 296 290 281 275 275 283 292 294 298 296 288 285 273 271 270 271 268 269 272 273 273 274 274 274 275 274 274 273 270 267 263 259 254
323 319 312 313 307 307 304 299 293 289 288 293 298 302 295 292 288 285 280 275 271 274 274 276 276 277 277 276 277 277 276 275 274 272 270 267 263 258
318 314 311 312 306 305 304 300 298 297 292 292 295 300 297 296 295 291 284 280 278 279 279 278 279 280 281 280 280 279 277 275 273 270 268 266 264 259
311 307 306 305 304 309 304 299 301 298 294 290 292 297 299 301 297 301 301 291 285 282 281 282 283 281 281 282 283 282 280 277 273 270 267 264 259 254
308 304 303 304 302 302 301 302 302 297 296 294 293 297 299 308 306 304 299 301 292 277 285 283 283 279 280 283 284 283 282 278 275 272 266 260 254 245
305 305 304 302 305 307 305 304 302 299 299 295 295 295 299 303 305 303 302 303 300 300 297 293 286 281 279 275 287 289 285 281 278 273 266 256 243 227
302 305 305 304 303 301 303 304 298 292 293 291 292 294 299 304 304 301 298 295 293 300 299 293 288 282 285 287 296 295 292 291 288 282 274 259 240 211
299 299 302 306 306 308 305 301 296 292 293 290 285 290 296 299 295 295 297 294 287 285 281 286 296 294 298 295 304 307 306 305 298 289 281 267 233 193
301 299 299 300 307 315 312 305 303 299 303 302 299 300 304 307 309 306 302 299 297 298 295 288 297 305 308 315 323 327 325 320 313 303 289 260 185 143
305 300 298 308 313 318 312 306 305 308 311 310 306 307 306 307 313 307 304 300 300 301 330 317 305 322 319 330 344 344 337 335 332 334 6 109 115 108
305 306 305 313 313 315 315 306 304 310 308 307 308 308 312 314 317 321 319 309 305 302 328 324 309 320 307 319 343 355 358 358 9 36 70 85 90 96
299 301 304 309 311 314 315 312 316 318 310 309 312 317 323 329 330 332 333 336 342 333 335 335 316 322 324 326 335 346 4 14 29 46 56 70 76 84
295 299 304 307 311 312 314 320 324 322 316 316 319 323 325 324 324 326 329 329 347 10 4 359 350 340 349 348 340 344 357 15 31 47 53 55 58 71
298 298 300 302 307 312 317 327 335 331 327 323 321 323 328 335 340 340 334 337 344 354 7 11 12 14 10 15 21 8 16 22 25 41 51 51 51 56
304 297 300 311 315 319 326 333 343 348 346 339 334 335 339 342 342 343 341 348 358 348 349 355 9 36 43 29 27 29 34 37 32 32 44 46 40 43
307 296 300 307 313 325 332 334 344 347 342 340 340 342 343 343 343 348 354 3 1 356 352 345 344 353 21 39 35 31 31 30 26 26 32 42 26 20
307 301 304 312 318 327 331 333 335 339 341 344 346 346 344 343 347 352 357 1 359 354 353 355 0 8 11 351 359 23 24 14 17 24 25 25 356 335
313 309 311 318 325 330 333 334 334 340 348 349 349 349 348 347 350 353 354 355 348 348 353 5 11 6 355 318 324 351 15 20 14 5 2 3 345 330
316 315 319 326 331 332 331 330 331 338 344 345 348 349 349 350 351 350 350 352 354 353 352 350 341 334 320 4 5 342 354 8 8 355 344 341 332 328
312 315 320 326 330 329 326 327 332 340 345 346 344 345 345 346 346 346 350 349 347 346 335 328 333 343 5 20 352 329 334 346 356 0 356 335 302 295
307 308 309 315 323 323 320 321 324 327 331 333 334 336 338 336 335 338 339 343 346 345 339 334 342 356 1 2 345 336 334 333 336 342 340 344 337 320